#timestamp,LO_Frequency,Hit,StdDev 
1619575215.8,286046997.6,N
1619575235.6,286046999.3,N
1619575255.5,286046999.1,N
1619575275.3,286046998.9,N
1619575295.1,286047000.5,N
1619575315.9,286047000.6,N
1619575335.7,286046998.2,N
1619575355.6,286047002.7,N
1619575375.4,286047000.1,N
1619575395.2,286047000.1,N
1619575415.1,286046998.4,N
1619575416.0,286046998.4,N
1619575435.8,286046999.5,N
1619575455.6,286046997.3,N
1619575505.5,286046999.6,E
1619575515.4,286046996.8,N
1619575535.3,286046999.5,P
1619575555.1,286046999.3,N
1619575575.8,286046999.2,N
1619575595.7,286046996.9,N
1619575615.5,286046999.2,N
1619575635.4,286047001.2,N
1619575655.2,286047002.2,N
1619575675.0,286047002.5,N
1619575675.9,286047002.5,N
1619575695.8,286047004.0,N
1619575715.6,286047003.9,N
1619575735.4,286047003.9,N
1619575755.3,286047005.1,N
1619575775.1,286047005.1,N
1619575795.9,286047006.7,N
1619575815.7,286047006.2,N
1619575835.5,286047007.6,N
1619575855.4,286047007.2,N
1619575875.2,286047007.3,N
1619575895.0,286047005.3,N
1619575895.9,286047005.3,N
1619575915.8,286047004.8,N
1619575935.6,286047005.9,N
1619575955.5,286047005.0,N
1619575975.3,286047002.9,N
1619575995.1,286047003.5,N
1619576015.9,286047002.1,N
1619576035.7,286047003.5,N
1619576055.5,286047003.4,N
1619576075.4,286047004.1,N
1619576095.2,286047006.0,N
1619576115.1,286047001.7,N
1619576116.0,286047001.7,N
1619576135.8,286047002.6,N
1619576155.6,286047002.5,N
1619576175.5,286047003.2,N
1619576195.3,286047004.3,N
1619576215.2,286047002.1,N
1619576235.9,286047000.2,N
1619576255.7,286046999.7,N
1619576275.6,286047002.1,N
1619576295.4,286046999.8,N
1619576315.3,286047001.0,N
1619576335.1,286047000.0,N
1619576355.8,286047000.0,N
1619576375.7,286047000.3,N
1619576395.5,286047002.7,N
1619576415.3,286047000.4,N
1619576435.2,286047000.1,N
1619576455.0,286047001.0,N
1619576455.9,286047001.0,N
1619576475.8,286046998.5,N
1619576495.6,286047000.9,N
1619576515.5,286047002.4,N
1619576535.3,286046999.9,N
1619576555.1,286047001.6,N
1619576575.9,286047002.3,N
1619576595.7,286047000.3,N
1619576615.5,286047000.8,N
1619576635.4,286047002.8,N
1619576655.2,286047004.0,N
1619576675.1,286047003.4,N
1619576676.0,286047003.4,N
1619576695.8,286047003.9,N
1619576715.6,286047000.1,N
1619576735.5,286047000.5,N
1619576755.3,286046999.8,N
1619576775.2,286047001.5,N
1619576795.9,286047001.9,N
1619576815.7,286047002.6,N
1619576835.6,286047001.9,N
1619576855.4,286047002.6,N
1619576875.2,286047002.0,N
1619576895.1,286047002.6,N
1619576896.0,286047002.6,N
1619576915.8,286047001.9,N
1619576935.7,286047001.9,N
1619576955.5,286047001.4,N
1619576975.3,286047003.5,N
1619576995.2,286047001.7,N
1619577015.0,286047002.0,N
1619577015.9,286047002.0,N
1619577035.8,286047002.5,N
1619577055.6,286047002.7,N
1619577075.4,286047000.4,N
1619577095.3,286047000.3,N
1619577115.1,286046998.3,N
1619577116.0,286046998.3,N
1619577135.8,286047001.6,N
1619577155.7,286047006.0,Y
1619577175.5,286047001.7,P
1619577195.4,286047000.4,P
1619577215.2,286046998.8,N
1619577235.0,286046996.7,N
1619577235.9,286046996.7,N
1619577255.8,286046999.4,N
1619577275.6,286046999.5,N
1619577295.4,286046998.8,N
1619577315.3,286046999.5,N
1619577335.1,286046997.6,N
1619577355.9,286046999.2,N
1619577375.7,286046996.6,N
1619577395.5,286046996.5,N
1619577415.4,286047000.6,N
1619577435.2,286046998.5,N
1619577455.0,286046999.1,N
1619577455.9,286046999.1,N
1619577475.8,286046997.9,N
1619577495.6,286046996.7,N
1619577515.5,286046997.9,N
1619577535.3,286046996.6,N
1619577555.1,286046996.8,N
1619577575.9,286046997.5,N
1619577595.7,286046996.9,N
1619577615.5,286046997.7,N
1619577635.4,286046997.0,N
1619577655.2,286046998.8,N
1619577675.1,286047000.5,N
1619577676.0,286047000.5,N
1619577695.8,286047000.8,N
1619577715.6,286047002.5,N
1619577735.5,286047000.1,N
1619577755.3,286047002.5,N
1619577775.2,286047002.2,N
1619577795.9,286046999.7,N
1619577815.7,286047001.0,N
1619577835.6,286047001.1,N
1619577855.4,286046999.6,N
1619577875.2,286046996.7,N
1619577895.1,286046999.0,N
1619577896.0,286046999.0,N
1619577915.8,286046999.6,N
1619577935.7,286046997.8,N
1619577955.5,286046997.5,N
1619577975.3,286046997.7,N
1619577995.2,286046997.0,N
1619578015.0,286046998.8,N
1619578015.9,286046998.8,N
1619578035.7,286046998.8,N
1619578055.6,286046997.0,N
1619578075.4,286046997.5,N
1619578095.3,286046997.2,N
1619578115.1,286046997.2,N
1619578116.0,286046997.2,N
1619578135.8,286046997.0,N
1619578155.7,286046995.3,N
1619578175.5,286046995.2,N
1619578195.3,286046995.4,N
1619578215.2,286046996.9,N
1619578235.0,286046997.1,N
1619578235.9,286046997.1,N
1619578255.8,286046996.9,N
1619578275.6,286046996.5,N
1619578295.4,286046996.5,N
1619578315.3,286046997.0,N
1619578335.1,286046999.0,N
1619578355.8,286046999.0,N
1619578375.7,286046999.4,N
1619578395.5,286047000.7,N
1619578415.4,286047000.3,N
1619578435.2,286046999.8,N
1619578455.0,286047000.9,N
1619578455.9,286047000.9,N
1619578475.8,286046998.4,N
1619578495.6,286046998.5,N
1619578515.4,286047000.9,N
1619578535.3,286047001.2,N
1619578555.1,286047000.7,N
1619578575.9,286047000.9,N
1619578595.7,286047001.3,N
1619578615.5,286047002.4,N
1619578635.4,286047002.1,N
1619578655.2,286047005.1,N
1619578675.0,286047003.8,N
1619578675.9,286047003.8,N
1619578695.8,286047004.2,N
1619578715.6,286047001.9,N
1619578735.5,286047000.3,N
1619578755.3,286046998.5,N
1619578775.1,286046998.7,N
1619578795.9,286046998.2,N
